iso_date,epoch_date,Year,Hour,Min,DOY,POS_DOY,Lat,Lon,BP,Ts,Ta,has_bp,has_ts,has_ta,BuoyID,Buoy_Type,Buoy_Owner,Logistics,Hemisphere
2020-09-02T11:30:02Z,1599046203,2020,11,30,246.4792,246.4792,88.4396,117.689,-999.00,-999.00,-999.0,no,no,no,300534061801880,unknown,unknown,unknown,North
2020-09-02T12:00:00Z,1599048000,2020,12,0,246.5,246.5,88.4419,117.7183,-999.00,-999.00,-999.0,no,no,no,300534061801880,unknown,unknown,unknown,North
2020-09-02T12:29:57Z,1599049797,2020,12,30,246.5208,246.5208,88.4445,117.749,-999.00,-999.00,-999.0,no,no,no,300534061801880,unknown,unknown,unknown,North
2020-09-02T13:00:02Z,1599051603,2020,13,0,246.5417,246.5417,88.4472,117.782,-999.00,-999.00,-999.0,no,no,no,300534061801880,unknown,unknown,unknown,North
2020-09-02T13:30:00Z,1599053400,2020,13,30,246.5625,246.5625,88.45,117.8191,-999.00,-999.00,-999.0,no,no,no,300534061801880,unknown,unknown,unknown,North
2020-09-02T13:59:57Z,1599055197,2020,14,0,246.5833,246.5833,88.4531,117.8614,-999.00,-999.00,-999.0,no,no,no,300534061801880,unknown,unknown,unknown,North
2020-09-02T14:30:02Z,1599057003,2020,14,30,246.6042,246.6042,88.456,117.9081,-999.00,-999.00,-999.0,no,no,no,300534061801880,unknown,unknown,unknown,North
2020-09-02T15:00:00Z,1599058800,2020,15,0,246.625,246.625,88.4591,117.9613,-999.00,-999.00,-999.0,no,no,no,300534061801880,unknown,unknown,unknown,North
2020-09-02T15:29:57Z,1599060597,2020,15,30,246.6458,246.6458,88.4622,118.0209,-999.00,-999.00,-999.0,no,no,no,300534061801880,unknown,unknown,unknown,North
2020-09-02T16:00:02Z,1599062403,2020,16,0,246.6667,246.6667,88.4652,118.0867,-999.00,-999.00,-999.0,no,no,no,300534061801880,unknown,unknown,unknown,North
2020-09-02T16:30:00Z,1599064200,2020,16,30,246.6875,246.6875,88.4682,118.1556,-999.00,-999.00,-999.0,no,no,no,300534061801880,unknown,unknown,unknown,North
2020-09-02T16:59:57Z,1599065997,2020,17,0,246.7083,246.7083,88.4711,118.2291,-999.00,-999.00,-999.0,no,no,no,300534061801880,unknown,unknown,unknown,North
2020-09-02T17:30:02Z,1599067803,2020,17,30,246.7292,246.7292,88.474,118.3005,-999.00,-999.00,-999.0,no,no,no,300534061801880,unknown,unknown,unknown,North
2020-09-02T18:00:00Z,1599069600,2020,18,0,246.75,246.75,88.4769,118.3715,-999.00,-999.00,-999.0,no,no,no,300534061801880,unknown,unknown,unknown,North
2020-09-02T18:29:57Z,1599071397,2020,18,30,246.7708,246.7708,88.4797,118.4417,-999.00,-999.00,-999.0,no,no,no,300534061801880,unknown,unknown,unknown,North
2020-09-02T19:00:02Z,1599073203,2020,19,0,246.7917,246.7917,88.4825,118.5075,-999.00,-999.00,-999.0,no,no,no,300534061801880,unknown,unknown,unknown,North
2020-09-02T19:30:00Z,1599075000,2020,19,30,246.8125,246.8125,88.4852,118.5673,-999.00,-999.00,-999.0,no,no,no,300534061801880,unknown,unknown,unknown,North
2020-09-02T19:59:57Z,1599076797,2020,20,0,246.8333,246.8333,88.488,118.6198,-999.00,-999.00,-999.0,no,no,no,300534061801880,unknown,unknown,unknown,North
2020-09-02T20:30:02Z,1599078603,2020,20,30,246.8542,246.8542,88.4907,118.6619,-999.00,-999.00,-999.0,no,no,no,300534061801880,unknown,unknown,unknown,North
2020-09-02T21:00:00Z,1599080400,2020,21,0,246.875,246.875,88.4936,118.6993,-999.00,-999.00,-999.0,no,no,no,300534061801880,unknown,unknown,unknown,North
2020-09-02T21:29:57Z,1599082197,2020,21,30,246.8958,246.8958,88.4966,118.7299,-999.00,-999.00,-999.0,no,no,no,300534061801880,unknown,unknown,unknown,North
2020-09-02T22:00:02Z,1599084003,2020,22,0,246.9167,246.9167,88.4997,118.7602,-999.00,-999.00,-999.0,no,no,no,300534061801880,unknown,unknown,unknown,North
2020-09-02T22:30:00Z,1599085800,2020,22,30,246.9375,246.9375,88.503,118.7908,-999.00,-999.00,-999.0,no,no,no,300534061801880,unknown,unknown,unknown,North
2020-09-02T22:59:57Z,1599087597,2020,23,0,246.9583,246.9583,88.5063,118.8199,-999.00,-999.00,-999.0,no,no,no,300534061801880,unknown,unknown,unknown,North
2020-09-02T23:30:02Z,1599089403,2020,23,30,246.9792,246.9792,88.5097,118.8477,-999.00,-999.00,-999.0,no,no,no,300534061801880,unknown,unknown,unknown,North
2020-09-03T00:00:00Z,1599091200,2020,0,0,247.0,247.0,88.5132,118.8764,-999.00,-999.00,-999.0,no,no,no,300534061801880,unknown,unknown,unknown,North
2020-09-03T00:29:57Z,1599092997,2020,0,30,247.0208,247.0208,88.5168,118.9068,-999.00,-999.00,-999.0,no,no,no,300534061801880,unknown,unknown,unknown,North
2020-09-03T01:00:02Z,1599094803,2020,1,0,247.0417,247.0417,88.5204,118.9408,-999.00,-999.00,-999.0,no,no,no,300534061801880,unknown,unknown,unknown,North
2020-09-03T01:30:00Z,1599096600,2020,1,30,247.0625,247.0625,88.5241,118.9788,-999.00,-999.00,-999.0,no,no,no,300534061801880,unknown,unknown,unknown,North
2020-09-03T01:59:57Z,1599098397,2020,2,0,247.0833,247.0833,88.5278,119.0244,-999.00,-999.00,-999.0,no,no,no,300534061801880,unknown,unknown,unknown,North
2020-09-03T02:30:02Z,1599100203,2020,2,30,247.1042,247.1042,88.5316,119.0728,-999.00,-999.00,-999.0,no,no,no,300534061801880,unknown,unknown,unknown,North
2020-09-03T03:00:00Z,1599102000,2020,3,0,247.125,247.125,88.5353,119.127,-999.00,-999.00,-999.0,no,no,no,300534061801880,unknown,unknown,unknown,North
2020-09-03T03:29:57Z,1599103797,2020,3,30,247.1458,247.1458,88.5391,119.1894,-999.00,-999.00,-999.0,no,no,no,300534061801880,unknown,unknown,unknown,North
2020-09-03T04:00:02Z,1599105603,2020,4,0,247.1667,247.1667,88.5427,119.2555,-999.00,-999.00,-999.0,no,no,no,300534061801880,unknown,unknown,unknown,North
2020-09-03T04:30:00Z,1599107400,2020,4,30,247.1875,247.1875,88.5464,119.3267,-999.00,-999.00,-999.0,no,no,no,300534061801880,unknown,unknown,unknown,North
2020-09-03T04:59:57Z,1599109197,2020,5,0,247.2083,247.2083,88.5499,119.4018,-999.00,-999.00,-999.0,no,no,no,300534061801880,unknown,unknown,unknown,North
2020-09-03T05:30:02Z,1599111003,2020,5,30,247.2292,247.2292,88.5534,119.4725,-999.00,-999.00,-999.0,no,no,no,300534061801880,unknown,unknown,unknown,North
2020-09-03T06:00:00Z,1599112800,2020,6,0,247.25,247.25,88.5569,119.545,-999.00,-999.00,-999.0,no,no,no,300534061801880,unknown,unknown,unknown,North
2020-09-03T06:29:57Z,1599114597,2020,6,30,247.2708,247.2708,88.5601,119.6139,-999.00,-999.00,-999.0,no,no,no,300534061801880,unknown,unknown,unknown,North
2020-09-03T07:00:02Z,1599116403,2020,7,0,247.2917,247.2917,88.5634,119.6789,-999.00,-999.00,-999.0,no,no,no,300534061801880,unknown,unknown,unknown,North
2020-09-03T07:30:00Z,1599118200,2020,7,30,247.3125,247.3125,88.5666,119.7396,-999.00,-999.00,-999.0,no,no,no,300534061801880,unknown,unknown,unknown,North
2020-09-03T07:59:57Z,1599119997,2020,8,0,247.3333,247.3333,88.5696,119.7922,-999.00,-999.00,-999.0,no,no,no,300534061801880,unknown,unknown,unknown,North
2020-09-03T08:30:02Z,1599121803,2020,8,30,247.3542,247.3542,88.5726,119.8398,-999.00,-999.00,-999.0,no,no,no,300534061801880,unknown,unknown,unknown,North
2020-09-03T09:00:00Z,1599123600,2020,9,0,247.375,247.375,88.5756,119.8809,-999.00,-999.00,-999.0,no,no,no,300534061801880,unknown,unknown,unknown,North
2020-09-03T09:29:57Z,1599125397,2020,9,30,247.3958,247.3958,88.5786,119.9145,-999.00,-999.00,-999.0,no,no,no,300534061801880,unknown,unknown,unknown,North
2020-09-03T10:00:02Z,1599127203,2020,10,0,247.4167,247.4167,88.5816,119.9383,-999.00,-999.00,-999.0,no,no,no,300534061801880,unknown,unknown,unknown,North
2020-09-03T10:30:00Z,1599129000,2020,10,30,247.4375,247.4375,88.5848,119.9574,-999.00,-999.00,-999.0,no,no,no,300534061801880,unknown,unknown,unknown,North
2020-09-03T10:59:57Z,1599130797,2020,11,0,247.4583,247.4583,88.588,119.9717,-999.00,-999.00,-999.0,no,no,no,300534061801880,unknown,unknown,unknown,North
2020-09-03T11:30:02Z,1599132603,2020,11,30,247.4792,247.4792,88.5913,119.9837,-999.00,-999.00,-999.0,no,no,no,300534061801880,unknown,unknown,unknown,North
2020-09-03T12:00:00Z,1599134400,2020,12,0,247.5,247.5,88.5947,119.9953,-999.00,-999.00,-999.0,no,no,no,300534061801880,unknown,unknown,unknown,North
2020-09-03T12:29:57Z,1599136197,2020,12,30,247.5208,247.5208,88.5982,120.0074,-999.00,-999.00,-999.0,no,no,no,300534061801880,unknown,unknown,unknown,North
2020-09-03T13:00:02Z,1599138003,2020,13,0,247.5417,247.5417,88.6017,120.0212,-999.00,-999.00,-999.0,no,no,no,300534061801880,unknown,unknown,unknown,North
2020-09-03T13:30:00Z,1599139800,2020,13,30,247.5625,247.5625,88.6054,120.0307,-999.00,-999.00,-999.0,no,no,no,300534061801880,unknown,unknown,unknown,North
2020-09-03T13:59:57Z,1599141597,2020,14,0,247.5833,247.5833,88.6091,120.0416,-999.00,-999.00,-999.0,no,no,no,300534061801880,unknown,unknown,unknown,North
2020-09-03T14:30:02Z,1599143403,2020,14,30,247.6042,247.6042,88.6127,120.0548,-999.00,-999.00,-999.0,no,no,no,300534061801880,unknown,unknown,unknown,North
2020-09-03T15:00:00Z,1599145200,2020,15,0,247.625,247.625,88.6164,120.0711,-999.00,-999.00,-999.0,no,no,no,300534061801880,unknown,unknown,unknown,North
2020-09-03T15:29:57Z,1599146997,2020,15,30,247.6458,247.6458,88.6202,120.092,-999.00,-999.00,-999.0,no,no,no,300534061801880,unknown,unknown,unknown,North
2020-09-03T16:00:02Z,1599148803,2020,16,0,247.6667,247.6667,88.6239,120.1174,-999.00,-999.00,-999.0,no,no,no,300534061801880,unknown,unknown,unknown,North
2020-09-03T16:30:00Z,1599150600,2020,16,30,247.6875,247.6875,88.6277,120.1498,-999.00,-999.00,-999.0,no,no,no,300534061801880,unknown,unknown,unknown,North
2020-09-03T16:59:57Z,1599152397,2020,17,0,247.7083,247.7083,88.6316,120.1915,-999.00,-999.00,-999.0,no,no,no,300534061801880,unknown,unknown,unknown,North
2020-09-03T17:30:02Z,1599154203,2020,17,30,247.7292,247.7292,88.6354,120.2387,-999.00,-999.00,-999.0,no,no,no,300534061801880,unknown,unknown,unknown,North
2020-09-03T18:00:00Z,1599156000,2020,18,0,247.75,247.75,88.6391,120.291,-999.00,-999.00,-999.0,no,no,no,300534061801880,unknown,unknown,unknown,North
2020-09-03T18:29:57Z,1599157797,2020,18,30,247.7708,247.7708,88.6425,120.341,-999.00,-999.00,-999.0,no,no,no,300534061801880,unknown,unknown,unknown,North
2020-09-03T19:00:02Z,1599159603,2020,19,0,247.7917,247.7917,88.6459,120.3898,-999.00,-999.00,-999.0,no,no,no,300534061801880,unknown,unknown,unknown,North
2020-09-03T19:30:00Z,1599161400,2020,19,30,247.8125,247.8125,88.649,120.4332,-999.00,-999.00,-999.0,no,no,no,300534061801880,unknown,unknown,unknown,North
2020-09-03T19:59:57Z,1599163197,2020,20,0,247.8333,247.8333,88.6519,120.4737,-999.00,-999.00,-999.0,no,no,no,300534061801880,unknown,unknown,unknown,North
2020-09-03T20:30:02Z,1599165003,2020,20,30,247.8542,247.8542,88.6547,120.5062,-999.00,-999.00,-999.0,no,no,no,300534061801880,unknown,unknown,unknown,North
2020-09-03T21:00:00Z,1599166800,2020,21,0,247.875,247.875,88.6573,120.5314,-999.00,-999.00,-999.0,no,no,no,300534061801880,unknown,unknown,unknown,North
2020-09-03T21:29:57Z,1599168597,2020,21,30,247.8958,247.8958,88.6598,120.5515,-999.00,-999.00,-999.0,no,no,no,300534061801880,unknown,unknown,unknown,North
2020-09-03T22:00:02Z,1599170403,2020,22,0,247.9167,247.9167,88.6621,120.5647,-999.00,-999.00,-999.0,no,no,no,300534061801880,unknown,unknown,unknown,North
2020-09-03T22:30:00Z,1599172200,2020,22,30,247.9375,247.9375,88.6642,120.5674,-999.00,-999.00,-999.0,no,no,no,300534061801880,unknown,unknown,unknown,North
2020-09-03T22:59:57Z,1599173997,2020,23,0,247.9583,247.9583,88.6663,120.5613,-999.00,-999.00,-999.0,no,no,no,300534061801880,unknown,unknown,unknown,North
2020-09-03T23:30:02Z,1599175803,2020,23,30,247.9792,247.9792,88.6685,120.5469,-999.00,-999.00,-999.0,no,no,no,300534061801880,unknown,unknown,unknown,North
2020-09-04T00:00:00Z,1599177600,2020,0,0,248.0,248.0,88.6707,120.5264,-999.00,-999.00,-999.0,no,no,no,300534061801880,unknown,unknown,unknown,North
2020-09-04T00:29:57Z,1599179397,2020,0,30,248.0208,248.0208,88.6728,120.5046,-999.00,-999.00,-999.0,no,no,no,300534061801880,unknown,unknown,unknown,North
2020-09-04T01:00:02Z,1599181203,2020,1,0,248.0417,248.0417,88.6752,120.4862,-999.00,-999.00,-999.0,no,no,no,300534061801880,unknown,unknown,unknown,North
2020-09-04T01:30:00Z,1599183000,2020,1,30,248.0625,248.0625,88.6776,120.4716,-999.00,-999.00,-999.0,no,no,no,300534061801880,unknown,unknown,unknown,North
2020-09-04T01:59:57Z,1599184797,2020,2,0,248.0833,248.0833,88.68,120.4658,-999.00,-999.00,-999.0,no,no,no,300534061801880,unknown,unknown,unknown,North
2020-09-04T02:30:02Z,1599186603,2020,2,30,248.1042,248.1042,88.6827,120.467,-999.00,-999.00,-999.0,no,no,no,300534061801880,unknown,unknown,unknown,North
2020-09-04T03:00:00Z,1599188400,2020,3,0,248.125,248.125,88.6854,120.4769,-999.00,-999.00,-999.0,no,no,no,300534061801880,unknown,unknown,unknown,North
2020-09-04T03:29:57Z,1599190197,2020,3,30,248.1458,248.1458,88.688,120.4959,-999.00,-999.00,-999.0,no,no,no,300534061801880,unknown,unknown,unknown,North
2020-09-04T04:00:02Z,1599192003,2020,4,0,248.1667,248.1667,88.6906,120.5223,-999.00,-999.00,-999.0,no,no,no,300534061801880,unknown,unknown,unknown,North
2020-09-04T04:30:00Z,1599193800,2020,4,30,248.1875,248.1875,88.6931,120.5557,-999.00,-999.00,-999.0,no,no,no,300534061801880,unknown,unknown,unknown,North
2020-09-04T04:59:57Z,1599195597,2020,5,0,248.2083,248.2083,88.6954,120.5939,-999.00,-999.00,-999.0,no,no,no,300534061801880,unknown,unknown,unknown,North
2020-09-04T05:30:02Z,1599197403,2020,5,30,248.2292,248.2292,88.6973,120.6312,-999.00,-999.00,-999.0,no,no,no,300534061801880,unknown,unknown,unknown,North
2020-09-04T06:00:00Z,1599199200,2020,6,0,248.25,248.25,88.6991,120.6625,-999.00,-999.00,-999.0,no,no,no,300534061801880,unknown,unknown,unknown,North
2020-09-04T06:29:57Z,1599200997,2020,6,30,248.2708,248.2708,88.7007,120.6877,-999.00,-999.00,-999.0,no,no,no,300534061801880,unknown,unknown,unknown,North
2020-09-04T07:00:02Z,1599202803,2020,7,0,248.2917,248.2917,88.7025,120.7092,-999.00,-999.00,-999.0,no,no,no,300534061801880,unknown,unknown,unknown,North
2020-09-04T07:30:00Z,1599204600,2020,7,30,248.3125,248.3125,88.7042,120.7187,-999.00,-999.00,-999.0,no,no,no,300534061801880,unknown,unknown,unknown,North
2020-09-04T07:59:57Z,1599206397,2020,8,0,248.3333,248.3333,88.7059,120.7237,-999.00,-999.00,-999.0,no,no,no,300534061801880,unknown,unknown,unknown,North
2020-09-04T08:30:02Z,1599208203,2020,8,30,248.3542,248.3542,88.7075,120.7216,-999.00,-999.00,-999.0,no,no,no,300534061801880,unknown,unknown,unknown,North
2020-09-04T09:00:00Z,1599210000,2020,9,0,248.375,248.375,88.7091,120.7131,-999.00,-999.00,-999.0,no,no,no,300534061801880,unknown,unknown,unknown,North
2020-09-04T09:29:57Z,1599211797,2020,9,30,248.3958,248.3958,88.7109,120.6934,-999.00,-999.00,-999.0,no,no,no,300534061801880,unknown,unknown,unknown,North
2020-09-04T10:00:02Z,1599213603,2020,10,0,248.4167,248.4167,88.7126,120.6656,-999.00,-999.00,-999.0,no,no,no,300534061801880,unknown,unknown,unknown,North
2020-09-04T10:30:00Z,1599215400,2020,10,30,248.4375,248.4375,88.7144,120.6304,-999.00,-999.00,-999.0,no,no,no,300534061801880,unknown,unknown,unknown,North
2020-09-04T10:59:57Z,1599217197,2020,11,0,248.4583,248.4583,88.7162,120.5901,-999.00,-999.00,-999.0,no,no,no,300534061801880,unknown,unknown,unknown,North
2020-09-04T11:30:02Z,1599219003,2020,11,30,248.4792,248.4792,88.7179,120.5493,-999.00,-999.00,-999.0,no,no,no,300534061801880,unknown,unknown,unknown,North
2020-09-04T12:00:00Z,1599220800,2020,12,0,248.5,248.5,88.7197,120.5012,-999.00,-999.00,-999.0,no,no,no,300534061801880,unknown,unknown,unknown,North
2020-09-04T12:29:57Z,1599222597,2020,12,30,248.5208,248.5208,88.7215,120.4507,-999.00,-999.00,-999.0,no,no,no,300534061801880,unknown,unknown,unknown,North
2020-09-04T13:00:02Z,1599224403,2020,13,0,248.5417,248.5417,88.7234,120.4014,-999.00,-999.00,-999.0,no,no,no,300534061801880,unknown,unknown,unknown,North
2020-09-04T13:30:00Z,1599226200,2020,13,30,248.5625,248.5625,88.7253,120.3544,-999.00,-999.00,-999.0,no,no,no,300534061801880,unknown,unknown,unknown,North
2020-09-04T13:59:57Z,1599227997,2020,14,0,248.5833,248.5833,88.7273,120.3081,-999.00,-999.00,-999.0,no,no,no,300534061801880,unknown,unknown,unknown,North
2020-09-04T14:30:02Z,1599229803,2020,14,30,248.6042,248.6042,88.7293,120.2655,-999.00,-999.00,-999.0,no,no,no,300534061801880,unknown,unknown,unknown,North
2020-09-04T15:00:00Z,1599231600,2020,15,0,248.625,248.625,88.7313,120.2279,-999.00,-999.00,-999.0,no,no,no,300534061801880,unknown,unknown,unknown,North
2020-09-04T15:29:57Z,1599233397,2020,15,30,248.6458,248.6458,88.7331,120.1915,-999.00,-999.00,-999.0,no,no,no,300534061801880,unknown,unknown,unknown,North
2020-09-04T16:00:02Z,1599235203,2020,16,0,248.6667,248.6667,88.7349,120.1554,-999.00,-999.00,-999.0,no,no,no,300534061801880,unknown,unknown,unknown,North
2020-09-04T16:30:00Z,1599237000,2020,16,30,248.6875,248.6875,88.7367,120.1207,-999.00,-999.00,-999.0,no,no,no,300534061801880,unknown,unknown,unknown,North
2020-09-04T16:59:57Z,1599238797,2020,17,0,248.7083,248.7083,88.7383,120.0894,-999.00,-999.00,-999.0,no,no,no,300534061801880,unknown,unknown,unknown,North
2020-09-04T17:30:02Z,1599240603,2020,17,30,248.7292,248.7292,88.7396,120.0633,-999.00,-999.00,-999.0,no,no,no,300534061801880,unknown,unknown,unknown,North
2020-09-04T18:00:00Z,1599242400,2020,18,0,248.75,248.75,88.7408,120.0351,-999.00,-999.00,-999.0,no,no,no,300534061801880,unknown,unknown,unknown,North
2020-09-04T18:29:57Z,1599244197,2020,18,30,248.7708,248.7708,88.7417,120.0032,-999.00,-999.00,-999.0,no,no,no,300534061801880,unknown,unknown,unknown,North
2020-09-04T19:00:02Z,1599246003,2020,19,0,248.7917,248.7917,88.7424,119.9686,-999.00,-999.00,-999.0,no,no,no,300534061801880,unknown,unknown,unknown,North
2020-09-04T19:30:00Z,1599247800,2020,19,30,248.8125,248.8125,88.743,119.9308,-999.00,-999.00,-999.0,no,no,no,300534061801880,unknown,unknown,unknown,North
2020-09-04T19:59:57Z,1599249597,2020,20,0,248.8333,248.8333,88.7433,119.8893,-999.00,-999.00,-999.0,no,no,no,300534061801880,unknown,unknown,unknown,North
2020-09-04T20:30:02Z,1599251403,2020,20,30,248.8542,248.8542,88.7436,119.8466,-999.00,-999.00,-999.0,no,no,no,300534061801880,unknown,unknown,unknown,North
2020-09-04T21:00:00Z,1599253200,2020,21,0,248.875,248.875,88.7437,119.8011,-999.00,-999.00,-999.0,no,no,no,300534061801880,unknown,unknown,unknown,North
2020-09-04T21:29:57Z,1599254997,2020,21,30,248.8958,248.8958,88.7438,119.7543,-999.00,-999.00,-999.0,no,no,no,300534061801880,unknown,unknown,unknown,North
2020-09-04T22:00:02Z,1599256803,2020,22,0,248.9167,248.9167,88.7438,119.7081,-999.00,-999.00,-999.0,no,no,no,300534061801880,unknown,unknown,unknown,North
2020-09-04T22:30:00Z,1599258600,2020,22,30,248.9375,248.9375,88.7438,119.6586,-999.00,-999.00,-999.0,no,no,no,300534061801880,unknown,unknown,unknown,North
2020-09-04T22:59:57Z,1599260397,2020,23,0,248.9583,248.9583,88.7438,119.6063,-999.00,-999.00,-999.0,no,no,no,300534061801880,unknown,unknown,unknown,North
2020-09-04T23:30:02Z,1599262203,2020,23,30,248.9792,248.9792,88.7438,119.5585,-999.00,-999.00,-999.0,no,no,no,300534061801880,unknown,unknown,unknown,North
2020-09-05T00:00:00Z,1599264000,2020,0,0,249.0,249.0,88.7438,119.5113,-999.00,-999.00,-999.0,no,no,no,300534061801880,unknown,unknown,unknown,North
2020-09-05T00:29:57Z,1599265797,2020,0,30,249.0208,249.0208,88.7439,119.4689,-999.00,-999.00,-999.0,no,no,no,300534061801880,unknown,unknown,unknown,North
2020-09-05T01:00:02Z,1599267603,2020,1,0,249.0417,249.0417,88.744,119.4306,-999.00,-999.00,-999.0,no,no,no,300534061801880,unknown,unknown,unknown,North
2020-09-05T01:30:00Z,1599269400,2020,1,30,249.0625,249.0625,88.7442,119.3992,-999.00,-999.00,-999.0,no,no,no,300534061801880,unknown,unknown,unknown,North
2020-09-05T01:59:57Z,1599271197,2020,2,0,249.0833,249.0833,88.7444,119.3733,-999.00,-999.00,-999.0,no,no,no,300534061801880,unknown,unknown,unknown,North
2020-09-05T02:30:02Z,1599273003,2020,2,30,249.1042,249.1042,88.7446,119.3529,-999.00,-999.00,-999.0,no,no,no,300534061801880,unknown,unknown,unknown,North
2020-09-05T03:00:00Z,1599274800,2020,3,0,249.125,249.125,88.7448,119.3365,-999.00,-999.00,-999.0,no,no,no,300534061801880,unknown,unknown,unknown,North
2020-09-05T03:29:57Z,1599276597,2020,3,30,249.1458,249.1458,88.7449,119.3263,-999.00,-999.00,-999.0,no,no,no,300534061801880,unknown,unknown,unknown,North
2020-09-05T04:00:02Z,1599278403,2020,4,0,249.1667,249.1667,88.745,119.3237,-999.00,-999.00,-999.0,no,no,no,300534061801880,unknown,unknown,unknown,North
2020-09-05T04:30:00Z,1599280200,2020,4,30,249.1875,249.1875,88.7451,119.3284,-999.00,-999.00,-999.0,no,no,no,300534061801880,unknown,unknown,unknown,North
2020-09-05T04:59:57Z,1599281997,2020,5,0,249.2083,249.2083,88.7451,119.3349,-999.00,-999.00,-999.0,no,no,no,300534061801880,unknown,unknown,unknown,North
2020-09-05T05:30:02Z,1599283803,2020,5,30,249.2292,249.2292,88.7449,119.3448,-999.00,-999.00,-999.0,no,no,no,300534061801880,unknown,unknown,unknown,North
2020-09-05T06:00:00Z,1599285600,2020,6,0,249.25,249.25,88.7446,119.3545,-999.00,-999.00,-999.0,no,no,no,300534061801880,unknown,unknown,unknown,North
2020-09-05T06:29:57Z,1599287397,2020,6,30,249.2708,249.2708,88.7443,119.3634,-999.00,-999.00,-999.0,no,no,no,300534061801880,unknown,unknown,unknown,North
2020-09-05T07:00:02Z,1599289203,2020,7,0,249.2917,249.2917,88.7439,119.3698,-999.00,-999.00,-999.0,no,no,no,300534061801880,unknown,unknown,unknown,North
2020-09-05T07:30:00Z,1599291000,2020,7,30,249.3125,249.3125,88.7434,119.3715,-999.00,-999.00,-999.0,no,no,no,300534061801880,unknown,unknown,unknown,North
2020-09-05T07:59:57Z,1599292797,2020,8,0,249.3333,249.3333,88.7429,119.3638,-999.00,-999.00,-999.0,no,no,no,300534061801880,unknown,unknown,unknown,North
2020-09-05T08:30:02Z,1599294603,2020,8,30,249.3542,249.3542,88.7424,119.3492,-999.00,-999.00,-999.0,no,no,no,300534061801880,unknown,unknown,unknown,North
2020-09-05T09:00:00Z,1599296400,2020,9,0,249.375,249.375,88.742,119.3268,-999.00,-999.00,-999.0,no,no,no,300534061801880,unknown,unknown,unknown,North
2020-09-05T09:29:57Z,1599298197,2020,9,30,249.3958,249.3958,88.7416,119.2994,-999.00,-999.00,-999.0,no,no,no,300534061801880,unknown,unknown,unknown,North
2020-09-05T10:00:02Z,1599300003,2020,10,0,249.4167,249.4167,88.7414,119.2684,-999.00,-999.00,-999.0,no,no,no,300534061801880,unknown,unknown,unknown,North
2020-09-05T10:30:00Z,1599301800,2020,10,30,249.4375,249.4375,88.7412,119.2353,-999.00,-999.00,-999.0,no,no,no,300534061801880,unknown,unknown,unknown,North
2020-09-05T10:59:57Z,1599303597,2020,11,0,249.4583,249.4583,88.7412,119.1978,-999.00,-999.00,-999.0,no,no,no,300534061801880,unknown,unknown,unknown,North
2020-09-05T11:30:02Z,1599305403,2020,11,30,249.4792,249.4792,88.741,119.1564,-999.00,-999.00,-999.0,no,no,no,300534061801880,unknown,unknown,unknown,North
2020-09-05T12:00:00Z,1599307200,2020,12,0,249.5,249.5,88.741,119.1288,-999.00,-999.00,-999.0,no,no,no,300534061801880,unknown,unknown,unknown,North
2020-09-05T12:29:57Z,1599308997,2020,12,30,249.5208,249.5208,88.7409,119.1155,-999.00,-999.00,-999.0,no,no,no,300534061801880,unknown,unknown,unknown,North
2020-09-05T13:00:02Z,1599310803,2020,13,0,249.5417,249.5417,88.7407,119.1122,-999.00,-999.00,-999.0,no,no,no,300534061801880,unknown,unknown,unknown,North
2020-09-05T13:30:00Z,1599312600,2020,13,30,249.5625,249.5625,88.7404,119.1106,-999.00,-999.00,-999.0,no,no,no,300534061801880,unknown,unknown,unknown,North
2020-09-05T13:59:57Z,1599314397,2020,14,0,249.5833,249.5833,88.7399,119.1068,-999.00,-999.00,-999.0,no,no,no,300534061801880,unknown,unknown,unknown,North
2020-09-05T14:30:02Z,1599316203,2020,14,30,249.6042,249.6042,88.7394,119.1062,-999.00,-999.00,-999.0,no,no,no,300534061801880,unknown,unknown,unknown,North
2020-09-05T15:00:00Z,1599318000,2020,15,0,249.625,249.625,88.7388,119.1086,-999.00,-999.00,-999.0,no,no,no,300534061801880,unknown,unknown,unknown,North
2020-09-05T15:29:57Z,1599319797,2020,15,30,249.6458,249.6458,88.7381,119.1124,-999.00,-999.00,-999.0,no,no,no,300534061801880,unknown,unknown,unknown,North
2020-09-05T16:00:02Z,1599321603,2020,16,0,249.6667,249.6667,88.7374,119.1187,-999.00,-999.00,-999.0,no,no,no,300534061801880,unknown,unknown,unknown,North